Probability
0 0 0 0 0 0 0 0 0 0 0 0 0 0 0 0 0 0 0 0 0 0 0 0 0 1 2 3 4 5 3 1 0 0 0 0 0 0 0 0 0 0 0 0
0 0 0 0 0 0 0 0 0 0 0 0 0 0 0 0 0 0 0 0 0 0 0 0 0 0 1 1 3 3 4 3 2 1 0 0 0 0 0 0 0 0 0 0
0 0 0 0 0 0 0 0 0 0 0 0 0 0 0 0 0 0 0 0 0 0 0 0 0 0 0 0 1 2 5 5 4 2 1 0 0 0 0 0 0 0 0 0
0 0 0 0 0 0 0 0 0 0 0 0 0 0 0 0 0 0 0 0 0 0 0 0 0 0 0 0 1 3 5 6 4 3 1 0 0 0 0 0 0 0 0 0
0 0 0 0 0 0 0 0 0 0 0 0 0 0 0 0 0 0 0 0 0 0 0 0 0 1 0 0 1 3 4 5 4 2 1 0 0 0 0 0 0 0 0 0
0 0 0 0 0 0 0 0 0 0 0 0 0 0 0 0 0 0 0 0 0 0 0 0 0 0 0 1 2 3 3 4 3 2 1 0 0 0 0 0 0 0 0 0
0 0 0 0 0 0 0 0 0 0 0 0 0 0 0 0 0 0 0 0 0 0 1 1 1 0 0 2 4 4 4 4 4 3 1 0 1 1 0 0 0 0 0 0
0 0 0 0 0 0 0 0 0 0 0 0 0 0 0 0 0 0 0 0 0 0 1 2 2 1 1 2 5 6 6 6 5 4 3 2 2 2 1 1 0 0 0 0
0 0 0 0 0 0 0 0 0 0 0 0 0 0 0 0 0 0 0 0 0 0 1 1 2 2 2 3 4 6 6 6 6 6 5 4 3 2 2 1 0 0 0 0
0 0 0 0 0 0 0 0 0 0 0 0 0 0 0 0 0 0 0 0 0 0 0 0 1 1 2 3 4 5 6 6 6 6 6 5 3 2 2 1 1 0 0 0
0 0 0 0 0 0 0 0 0 0 0 0 0 0 0 0 0 0 0 0 0 0 0 0 0 0 1 2 4 5 6 6 6 6 6 6 4 2 1 1 1 0 0 0
0 0 0 0 0 0 0 0 0 0 0 0 0 0 0 0 0 0 0 0 0 0 0 0 0 0 0 0 2 3 4 5 6 6 6 5 4 2 1 0 0 0 0 0
0 0 0 0 0 0 0 0 0 0 0 0 0 0 0 0 0 0 0 0 0 0 0 0 0 0 0 1 1 2 3 4 5 6 5 4 3 3 1 1 0 0 0 0
0 0 0 0 0 0 0 0 0 0 0 0 0 0 0 0 0 0 0 0 0 0 0 0 0 0 1 2 2 3 3 3 4 4 3 2 2 2 2 1 0 0 0 0
0 0 0 0 0 0 0 0 0 0 0 0 0 0 0 0 0 0 0 0 0 0 0 0 0 0 1 2 3 3 3 3 2 2 1 1 1 1 1 1 0 0 0 0
0 0 0 0 0 0 0 0 0 0 0 0 0 0 0 0 0 0 0 0 0 0 0 0 0 0 0 1 2 3 3 1 1 1 1 1 0 0 0 0 0 0 0 0
0 0 0 0 0 0 0 0 0 0 0 0 0 0 0 0 0 0 0 0 0 0 0 0 0 0 0 1 1 2 2 1 0 0 1 1 1 0 0 0 0 0 0 0
0 0 0 0 0 0 0 0 0 0 0 0 0 0 0 0 0 0 0 0 0 0 0 0 0 0 1 1 1 1 1 0 0 0 0 1 1 0 0 0 0 0 0 0
0 0 0 0 0 0 0 0 0 0 0 0 0 0 0 0 0 0 0 0 0 0 0 0 0 0 0 0 0 0 0 0 0 0 0 0 0 0 0 0 0 0 0 0
0 0 0 0 0 0 0 0 0 0 0 0 0 0 0 0 0 0 0 0 0 0 0 0 0 0 0 0 0 0 0 0 0 0 0 0 0 0 0 0 0 0 0 0
0 0 0 0 0 0 0 0 0 0 0 0 0 0 0 0 0 0 0 0 0 0 0 0 0 0 0 0 0 0 0 0 0 0 0 0 0 0 0 0 0 0 0 0
0 0 0 0 0 0 0 0 0 0 0 0 0 0 0 0 0 0 0 0 0 0 0 0 0 0 0 0 0 0 0 0 0 0 0 0 0 0 0 0 0 0 0 0
0 0 0 0 0 0 0 0 0 0 0 0 0 0 0 0 0 0 0 0 1 1 0 0 0 0 0 0 0 0 0 0 0 0 0 0 0 0 0 0 0 0 0 0
0 0 0 0 0 0 0 0 0 0 0 0 0 0 0 0 0 0 0 0 0 1 1 1 0 0 0 0 0 0 0 0 0 0 0 0 0 0 0 0 0 0 0 0
0 0 0 0 0 0 0 0 0 0 0 0 0 0 0 0 0 0 0 0 0 1 2 1 0 0 0 0 0 0 0 0 0 0 0 0 0 0 0 0 0 0 0 0
0 0 0 0 0 0 0 0 0 0 0 0 0 0 0 0 0 0 0 0 0 1 2 1 0 0 0 0 0 0 1 0 0 0 0 0 0 0 0 0 0 0 0 0
0 0 0 0 0 0 0 0 0 0 0 0 0 0 0 0 0 0 0 0 0 1 2 1 0 0 0 0 0 0 1 0 0 0 0 0 0 0 0 0 0 0 0 0
Wind_Speed
5 2 5 7 8 10 11 10 8 6 7 6 5 3 2 3 4 6 8 10 11 11 11 11 11 11 11 11 11 10 10 9 9 8 7 6 6 5 5 4 4 4 3 3
7 6 6 7 8 9 11 10 10 9 8 5 4 3 3 4 5 6 8 10 11 11 11 12 12 12 11 11 11 11 11 10 8 8 8 7 6 6 5 5 4 4 4 3
6 6 6 9 9 9 9 8 8 9 6 4 3 3 4 4 5 7 8 9 10 11 11 12 12 12 13 12 11 11 11 9 9 9 8 8 7 6 6 6 5 4 4 4
5 7 10 3 3 7 9 9 9 7 6 5 4 4 4 4 5 6 7 8 9 9 10 10 11 11 11 11 11 11 10 10 9 9 9 8 8 7 7 6 5 4 4 3
6 8 7 4 5 7 8 8 8 9 7 5 3 3 4 3 4 5 6 7 7 8 9 10 11 11 11 12 12 11 11 10 10 10 9 9 8 8 7 6 5 5 4 4
7 8 8 3 3 4 7 8 5 7 6 4 4 4 2 1 2 3 4 4 5 7 8 9 10 11 12 12 12 12 11 11 10 10 10 9 9 8 6 6 5 5 4 4
10 9 6 1 4 6 8 2 3 5 4 4 5 3 2 0 1 2 3 4 5 7 7 8 9 10 11 12 12 11 10 10 10 10 9 9 8 7 6 6 5 5 5 4
9 10 6 5 7 7 2 1 3 3 3 3 3 1 1 0 0 1 3 4 5 6 7 7 9 10 11 10 9 9 9 9 10 10 8 8 8 7 7 6 6 5 5 4
6 4 1 4 3 1 2 1 2 2 2 2 2 2 1 1 1 2 3 4 5 6 7 7 8 9 9 8 8 9 9 10 9 10 9 8 8 8 7 6 5 5 4 4
5 4 3 3 3 2 2 2 2 2 2 2 2 1 1 1 2 2 3 3 4 6 6 6 7 7 7 7 9 9 10 9 9 9 9 8 7 7 6 6 5 5 4 4
7 4 3 3 3 3 2 2 2 1 1 2 2 2 2 2 2 2 3 3 4 5 5 6 6 6 6 7 9 9 9 9 9 8 8 7 7 5 6 6 5 5 4 4
5 4 4 3 2 2 2 2 1 1 1 1 2 2 2 2 2 2 3 3 4 5 5 6 6 6 6 7 8 9 8 8 7 6 6 6 6 5 2 2 3 4 3 4
3 1 2 2 1 1 2 2 1 1 2 2 1 2 2 2 2 2 3 3 4 4 5 5 6 6 6 7 7 8 7 7 6 6 6 6 6 6 5 4 3 4 5 5
2 2 3 2 1 1 2 1 0 0 1 1 2 2 2 3 3 3 3 3 3 4 5 5 5 5 6 6 7 7 7 6 6 6 6 6 6 6 6 6 5 5 5 7
4 4 3 2 1 1 1 1 1 1 1 1 2 2 3 3 3 2 2 2 3 4 4 5 5 5 5 6 7 7 6 5 5 5 5 6 6 6 6 6 5 4 4 5
4 4 4 3 3 3 2 2 2 2 1 1 2 2 2 2 2 2 2 3 4 4 4 5 5 4 5 6 6 5 5 5 5 5 5 5 6 6 5 6 5 5 5 4
6 5 5 4 4 4 4 4 3 2 2 2 2 2 2 3 2 2 2 2 3 3 3 4 4 4 4 5 5 4 4 5 7 5 5 5 5 6 5 5 5 5 5 4
6 5 5 4 4 4 4 3 3 2 2 2 2 2 3 3 3 2 2 3 3 3 2 2 3 4 4 5 4 3 4 5 5 5 5 5 5 5 5 5 6 6 4 4
4 4 3 3 3 3 3 2 2 2 1 2 3 3 3 3 2 2 2 2 3 3 2 2 2 4 4 4 4 4 4 4 5 5 5 5 5 5 5 5 5 5 5 4
4 3 3 2 2 2 2 1 1 1 1 2 3 3 3 3 2 2 2 2 2 2 2 2 3 3 3 4 4 3 4 4 5 4 4 5 5 5 5 5 5 5 5 5
4 3 3 2 2 1 2 2 2 2 2 2 3 3 3 2 3 3 3 2 1 1 1 2 3 2 3 3 4 3 3 4 4 4 4 5 5 5 5 5 5 5 4 4
4 3 3 3 2 2 2 2 2 2 2 2 2 2 2 2 2 2 3 2 1 1 2 2 2 2 2 3 3 3 3 3 3 3 4 4 4 4 4 4 4 4 4 4
3 3 3 3 3 2 2 2 2 2 2 2 2 2 2 2 2 2 2 1 1 2 2 2 1 3 4 3 3 3 3 3 3 3 3 3 3 3 3 3 3 3 3 3
3 3 3 3 3 3 3 2 2 2 2 2 2 2 2 2 1 1 1 1 2 2 2 2 3 4 4 3 3 3 3 3 2 2 2 2 2 2 2 2 2 3 3 3
2 2 3 3 3 3 3 2 2 2 1 1 1 1 1 1 1 1 1 2 2 2 2 3 4 4 3 2 3 3 3 2 2 2 2 2 2 1 1 1 2 2 2 2
2 2 2 2 2 2 2 2 2 2 2 2 1 1 1 1 1 1 1 2 2 2 2 2 2 3 3 3 3 2 2 2 3 2 2 2 2 2 1 1 1 1 1 1
2 2 2 2 2 2 2 2 2 2 2 2 2 1 1 1 1 1 1 1 2 2 1 2 2 2 2 2 2 2 2 2 2 2 2 1 1 1 1 1 0 0 1 1
Wind_Direction
245 243 219 221 212 207 221 238 251 256 265 283 291 275 244 208 193 188 190 189 189 190 189 188 190 189 188 185 181 179 181 185 186 181 176 177 173 174 173 173 178 170 166 161
220 218 222 232 227 219 225 235 244 257 266 285 287 260 235 210 199 200 198 195 196 196 193 192 190 188 185 185 183 182 185 187 179 177 173 176 178 176 170 174 183 180 183 176
221 203 220 233 227 220 215 221 233 242 254 271 267 251 243 229 211 211 210 202 200 201 199 196 193 186 184 183 180 183 184 177 176 178 174 176 176 174 175 180 184 189 190 183
225 208 234 231 185 215 223 229 231 244 255 257 255 267 260 245 229 223 216 208 204 206 201 196 190 185 182 178 178 182 182 177 176 179 175 174 176 176 182 183 179 191 191 189
230 233 238 219 201 201 216 231 227 231 239 246 251 242 234 237 242 237 218 209 205 204 198 192 188 183 179 178 179 183 184 182 178 178 176 175 177 180 183 183 181 188 183 186
224 236 241 211 165 199 220 235 214 217 220 222 220 238 227 186 230 233 217 204 198 194 189 186 184 180 181 182 183 187 186 184 178 178 177 178 178 179 179 180 183 187 184 193
228 237 244 159 145 176 214 227 157 193 206 214 225 273 2 45 231 219 201 190 181 180 180 181 176 176 185 185 188 187 180 177 174 176 179 178 173 174 176 178 183 193 189 196
220 233 230 142 168 203 261 73 163 193 206 214 235 279 304 280 165 174 171 171 170 169 170 171 173 179 184 186 185 178 173 172 174 175 173 171 169 172 177 178 186 194 197 196
222 233 61 165 196 268 316 251 204 212 211 209 212 216 212 187 146 149 158 163 165 165 163 164 173 183 182 179 175 171 170 173 174 172 173 172 171 171 175 183 195 200 204 209
223 223 223 214 235 267 280 280 280 250 227 213 209 198 176 155 134 131 140 151 161 165 165 165 171 181 182 171 168 170 172 174 174 174 174 174 176 180 182 188 197 202 208 215
227 221 215 212 240 267 279 284 286 265 224 214 203 179 164 153 136 127 135 147 160 170 170 166 167 171 172 170 169 172 174 176 175 176 176 177 180 186 195 195 201 207 210 212
226 207 223 223 231 256 262 267 257 230 215 204 192 171 162 150 140 142 146 151 161 169 170 167 165 167 168 171 176 176 176 176 175 174 176 178 178 179 180 217 180 203 224 236
264 253 255 263 249 256 272 297 283 231 211 206 189 170 162 149 147 154 160 163 167 168 170 168 168 172 170 173 181 183 180 175 174 178 177 180 184 190 190 187 194 203 206 219
228 217 215 212 234 288 290 287 264 192 186 196 179 166 156 146 145 158 172 172 171 170 171 169 171 176 175 176 182 186 182 176 177 182 185 187 191 198 200 199 198 203 200 203
220 238 237 236 243 259 255 221 191 165 140 155 164 165 163 161 160 166 163 161 168 173 173 169 170 171 170 177 182 185 182 178 182 187 190 192 195 200 204 208 212 209 203 190
223 223 213 220 232 242 232 215 210 209 202 187 181 179 172 164 155 152 150 160 170 175 176 173 171 170 172 176 179 185 186 173 180 186 190 193 196 200 204 209 212 214 216 208
204 207 211 221 232 238 237 234 226 222 224 226 219 200 176 160 154 151 154 165 171 172 175 176 170 169 177 180 182 185 187 177 181 194 199 200 199 203 206 209 214 219 222 206
217 219 218 222 231 239 239 236 230 229 232 232 212 198 187 183 182 180 172 163 160 163 172 182 172 175 180 183 187 192 193 191 194 199 199 202 206 209 211 214 216 221 226 204
206 207 211 221 233 237 236 230 226 228 222 205 198 199 199 203 198 188 175 169 174 186 194 184 175 185 179 180 188 196 200 199 199 201 202 195 206 212 214 217 219 221 220 215
204 206 208 209 213 222 233 231 212 201 207 205 204 199 200 201 194 187 180 187 201 211 200 187 189 188 184 175 185 197 200 204 204 202 203 207 211 214 216 219 224 225 224 222
198 199 194 193 199 216 228 222 209 206 207 203 199 198 201 200 194 192 192 205 215 212 207 185 195 188 183 171 186 195 197 203 207 208 208 210 213 216 219 220 221 224 226 229
195 199 204 205 208 219 225 225 221 216 212 211 211 204 197 196 195 200 204 215 207 165 188 194 201 175 166 172 185 191 195 202 209 212 214 215 216 218 220 221 223 226 230 232
206 207 210 214 216 219 222 227 224 220 219 217 212 208 211 213 209 208 223 224 198 182 200 195 166 150 166 180 186 191 195 202 210 214 217 220 221 220 219 222 227 229 231 234
216 215 215 215 212 209 216 227 233 229 224 225 220 213 206 199 213 227 238 203 196 200 210 167 154 161 184 188 186 192 196 199 204 214 217 216 216 221 218 217 220 227 232 238
225 219 211 207 208 213 218 214 211 208 205 203 201 196 202 203 207 216 216 199 184 201 205 172 169 178 191 194 188 190 191 188 192 200 206 203 202 214 220 217 222 232 242 250
231 227 224 226 230 224 216 211 209 199 192 191 194 187 177 171 177 187 193 190 184 196 203 186 182 186 196 194 190 190 185 175 182 192 196 192 191 197 208 212 227 257 267 277
232 229 219 214 211 212 213 213 212 206 202 198 193 187 179 172 171 172 178 184 188 195 188 180 184 186 186 182 180 181 177 170 167 172 179 183 182 184 185 190 216 273 303 307